DW2373 Thessaloniki GR current weather conditions

sailwx.info

Wind from 068 at 5 knots gusting 7

Air temperature 19.4° C
Dewpoint 9.0° C

Last reported at 2015-May-27 20:03 UTC.
Time now 2015-May-27 22:04 UTC

Location: N 40°31' E 022°58'.
View on Google Maps.

See reports from other nearby stations

  
Tides and Currents Weather Stations Pressure Air Temp Water Temp Dewpoint Dewpoint Depression Visibility Wind Speed Wind Dir Waves Ship Positions
date/time (UTC)wind fromknots sea level pressurealtimeterstation pressurevisibilityair tempwater tempwave heightnotes
2015-May-27 20:03 068 5 gusting 7 19.4
2015-May-27 19:03 022 4 gusting 11 20.6
2015-May-27 18:03 020 2 gusting 6 21.7
2015-May-27 17:03 354 0 gusting 2 22.2
2015-May-27 16:03 041 0 gusting 6 22.2
2015-May-27 15:03 320 4 gusting 8 22.8
2015-May-27 14:03 311 1 gusting 10 26.1
2015-May-27 13:03 345 0 gusting 6 26.7
2015-May-27 12:03 018 1 gusting 6 27.2
2015-May-27 11:03 108 1 gusting 6 27.2
2015-May-27 10:03 349 3 gusting 6 26.1
2015-May-27 09:03 058 1 gusting 2 25.0
2015-May-27 08:03 302 2 gusting 6 23.9
2015-May-27 07:03 313 2 gusting 6 22.8
2015-May-27 06:03 346 1 gusting 6 21.7
2015-May-27 05:03 017 1 gusting 6 21.1
2015-May-27 04:03 063 0 gusting 6 20.6
2015-May-27 03:03 027 1 gusting 4 20.6
2015-May-27 02:03 011 21.7
2015-May-27 01:03 090 21.7
2015-May-27 00:03 090 21.7
2015-May-26 23:03 045 21.7
2015-May-26 22:03 112 1 gusting 2 21.7
2015-May-26 21:03 068 21.7
2015-May-26 20:03 090 5 gusting 6 22.2
2015-May-26 19:03 090 5 gusting 6 22.2
2015-May-26 18:03 090 5 gusting 6 23.3
2015-May-26 17:03 090 5 gusting 6 23.9
2015-May-26 16:03 180 4 gusting 8 25.6
2015-May-26 15:03 202 5 gusting 10 27.2
2015-May-26 14:03 211 1 gusting 4 28.3
2015-May-26 13:03 208 1 gusting 5 28.9
2015-May-26 12:03 168 3 gusting 6 28.3
2015-May-26 11:03 228 2 gusting 7 27.8
2015-May-26 10:03 179 4 gusting 8 26.7
2015-May-26 09:03 010 4 gusting 6 25.6
2015-May-26 08:03 312 2 gusting 7 25.0
2015-May-26 07:03 330 1 gusting 5 24.4
2015-May-26 06:03 330 1 gusting 5 22.8
2015-May-26 05:03 357 2 gusting 5 21.1
2015-May-26 04:03 045 18.3
2015-May-26 03:03 087 0 gusting 4 18.3
2015-May-26 02:03 076 1 gusting 2 18.9
2015-May-26 01:03 158 0 gusting 4 20.0
2015-May-26 00:03 051 0 gusting 5 20.6
2015-May-25 23:03 045 0 gusting 2 20.6
2015-May-25 22:03 067 21.7